Regional Weather Roundup
Issued by NWS

Home | Current Version | Previous Version | Text Only | Print | Product List | Glossary On
Versions: 1 2 3 4 5 6 7 8 9 10 11 12 13 14 15 16 17 18 19 20 21 22 23 24 25 26 27 28 29 30 31 32 33 34 35 36 37 38 39 40 41 42 43 44 45 46 47 48 49 50
000
ASUS43 KLOT 221808
RWRIL

ILLINOIS REGIONAL WEATHER ROUNDUP
NATIONAL WEATHER SERVICE CHICAGO/ROMEOVILLE IL
100 PM CDT TUE AUG 22 2017

NOTE: "FAIR" INDICATES FEW OR NO CLOUDS BELOW 12,000 FEET WITH NO
SIGNIFICANT WEATHER AND/OR OBSTRUCTIONS TO VISIBILITY.

* THESE STATIONS ARE NOT UNDER NWS QUALITY CONTROL. THEY ALSO MAY NOT
  REPORT WEATHER SUCH AS PRECIPITATION OR FOG.

ILZ001-002-007-009-015-016-024-221900-
NORTHWEST ILLINOIS

CITY           SKY/WX    TMP DP  RH WIND       PRES   REMARKS
MOLINE         MOSUNNY   77  59  53 NW16G23   29.99S
6HR MIN TEMP:  68; 6HR MAX TEMP:  78;

STERLING*      MOSUNNY   76  61  59 W14       29.96S
SAVANNA*       SUNNY     77  55  46 NW16G22   29.97R
$$

ILZ003-004-008-010-011-017-018-221900-
NORTH CENTRAL ILLINOIS

CITY           SKY/WX    TMP DP  RH WIND       PRES   REMARKS
ROCKFORD       MOSUNNY   78  57  48 NW18G24   29.94S
6HR MIN TEMP:  68; 6HR MAX TEMP:  78;

FREEPORT*      PTSUNNY   74  56  52 NW17      29.97R
ROCHELLE*      MOSUNNY   76  59  55 NW15G23   29.94
DE KALB*       MOSUNNY   74  62  66 NW13G21   29.94R
PERU*          CLOUDY    72  63  72 W14       29.97S
$$

ILZ005-006-012>014-019>023-221900-
NORTHEAST ILLINOIS

CITY           SKY/WX    TMP DP  RH WIND       PRES   REMARKS
CHICAGO-OHARE  PTSUNNY   78  60  53 NW17      29.89S
6HR MIN TEMP:  71; 6HR MAX TEMP:  79;

CHICAGO-MIDWAY PTSUNNY   76  61  59 NW16G29   29.90R
6HR MIN TEMP:  71; 6HR MAX TEMP:  76;

AURORA         PTSUNNY   75  66  73 W14G22    29.93S
6HR MIN TEMP:  69; 6HR MAX TEMP:  75;

LANSING*       CLOUDY    75  62  63 W14G20    29.91R
JOLIET*        CLOUDY    75  65  70 W8G20     29.93R
WAUKEGAN       PTSUNNY   77  59  53 NW10G23   29.87S
6HR MIN TEMP:  70; 6HR MAX TEMP:  77;

DUPAGE AIRPORT MOSUNNY   76  65  68 W15       29.90F
6HR MIN TEMP:  69; 6HR MAX TEMP:  76;

KANKAKEE*      CLOUDY    73  66  77 NW10      29.94R
WHEELING       PTSUNNY   78  61  55 NW14G21   29.90S HX  80
6HR MIN TEMP:  71; 6HR MAX TEMP:  79;

MORRIS*        CLOUDY    73  64  73 NW13      29.93R
ROMEOVILLE*    CLOUDY    74  63  68 W15G21    29.92S
NORTHERLY ISL    N/A     75  59  57 W15         N/A
$$

LMZ740>746-221900-
SOUTHERN LAKE MICHIGAN

STATION/POSITION SKY/WX   TEMP    WIND        PRES    VSBY  WAVE
                          AIR SEA DIR/SP/G                  HT/PER
                          (F)     (DEG/KT/KT) (MB)    (MI)  (FT/S)
SOUTHERN BUOY              71 71  310/ 12/ 14 1010.9R         3/ 5
WILMETTE HARBOR            74 74  290/ 12/ 16   N/A           3/ 3
HARRISON CRIB              74     280/ 18/ 20   N/A
CALUMET HARBOR             75     270/  5/ 11 1011.8R
BURNS HARBOR               74     280/ 14/ 17 1012.5R
MICHIGAN CITY              72     300/ 17/ 18   N/A
MICHIGAN CITY 6N           72 74  320/ 14/ 17   N/A           4/ 4
ST. JOSEPH                 72 73  330/ 16/ 21 1012.0          5/ 5
$$

ILZ025>027-034>036-040-047-049-050-058-095>099-221900-
WEST-CENTRAL ILLINOIS

CITY           SKY/WX    TMP DP  RH WIND       PRES   REMARKS
QUINCY         MOSUNNY   78  65  63 NW13      30.02S HX  80
GALESBURG*     PTSUNNY   74  64  70 NW14G20   30.01S
MACOMB*        MOSUNNY   76  64  66 NW13G18   30.03S
JACKSONVILLE*  CLOUDY    76  67  73 NW9       30.00S
PITTSFIELD*    PTSUNNY   78  68  71 W10       30.03S HX  80
$$

ILZ028>032-037-038-041>044-048-051>054-059>061-221900-
CENTRAL ILLINOIS

CITY           SKY/WX    TMP DP  RH WIND       PRES   REMARKS
PONTIAC        CLOUDY    73  69  87 W15       29.96S
BLOOMINGTON    PTSUNNY   76  67  73 NW16      29.97S
DECATUR        CLOUDY    78  66  66 W15       29.97S HX  80
PEORIA         MOSUNNY   75  65  70 NW15G28   29.98R
6HR MIN TEMP:  68; 6HR MAX TEMP:  77; 6HR PCP: TRACE;

LACON*         CLOUDY    72  63  73 NW12G18   29.97S
LINCOLN*       PTSUNNY   77  68  74 NW5       29.97S
SPRINGFIELD    PTSUNNY   79  69  71 NW12      29.99R HX  81
6HR MIN TEMP:  70; 6HR MAX TEMP:  79; 6HR PCP:  0.01;

TAYLORVILLE    PTSUNNY   78  67  69 NW10G17   29.99S HX  80
6HR MIN TEMP:  69; 6HR MAX TEMP:  78; 6HR PCP:  0.01;

$$

ILZ033-039-045-046-055>057-062-063-221900-
EAST-CENTRAL ILLINOIS

CITY           SKY/WX    TMP DP  RH WIND       PRES   REMARKS
CHAMPAIGN      CLOUDY    78  67  68 W14G20    29.96S HX  80
RANTOUL*       CLOUDY    78  70  74 W12       29.96R HX  81
MATTOON        LGT RAIN  78  69  73 W8        29.96F HX  80
PARIS*         CLOUDY    78  69  74 W9        29.96F HX  80
$$

ILZ079-100>102-221900-
SOUTHWEST ILLINOIS

CITY           SKY/WX    TMP DP  RH WIND       PRES   REMARKS
ALTON          PTSUNNY   77  70  78 W16       30.02S
BELLEVILLE     CLOUDY    78  70  77 NW13      30.03R
CAHOKIA*       LGT RAIN  77  71  82 NW10      30.02R
SPARTA*        CLOUDY    76  70  79 NW7       30.03S
$$

ILZ064>066-069>071-074>076-080>082-084>086-088>090-092>094-221900-
SOUTH-CENTRAL ILLINOIS

CITY           SKY/WX    TMP DP  RH WIND       PRES   REMARKS
CARBONDALE     CLOUDY    77  69  76 NW10      30.00R
6HR MIN TEMP:  76; 6HR MAX TEMP:  81;

CAIRO*         CLOUDY    84  75  75 W5        29.96F HX  92
EFFINGHAM*     CLOUDY    76  72  88 W9        30.00S
MARION         LGT RAIN  79  75  89 NW17G23   30.00R HX  82
MT. VERNON       N/A     75  73  93 W3        30.00R
CENTRALIA*     CLOUDY    78  72  80 W9        29.99F HX  81
SALEM*         PTSUNNY   79  70  73 W8        29.99F HX  82
METROPOLIS*    CLOUDY    86  76  70 SW10      29.97F HX  96
$$

ILZ067-068-072-073-078-083-087-091-221900-
SOUTHEAST ILLINOIS

CITY           SKY/WX    TMP DP  RH WIND       PRES   REMARKS
LAWRENCEVILLE  LGT RAIN  76  72  87 SW3       29.97S
FLORA*         CLOUDY    78  71  80 W9        29.99S HX  80
FAIRFIELD*     CLOUDY    76  74  92 CALM      29.97S
HARRISBURG*    CLOUDY    85  75  70 W18G28    29.97R HX  93
ROBINSON*      CLOUDY    76  70  82 W7        29.98S
CARMI*         CLOUDY    79  74  87 NW5       29.95S HX  82
$$

ABBREVIATIONS USED IN REMARKS
   TC - TEMPERATURE IN CELSIUS
  WCI - WIND CHILL INDEX
   HX - HEAT INDEX
  VSB - VISIBILITY
$$





USA.gov is the U.S. government's official web portal to all federal, state and local government web resources and services.